User: anonymous   Login
Location: Unspecified
(0.0000°N, 0.0000°E)
Time: 03:45:15
(UTC+02:00)
Language:

Delta 2 Rocket - Orbit

View from above orbital plane
View from above orbital plane
View from above satellite
View from above satellite

Ground track
Ground track

The orbit data is extracted from the following two-line orbital elements,

1 20453U 90008B   16176.37173426  .00001136  00000-0  69979-4 0  9990
2 20453  35.6234 170.4941 0293528  75.0617 288.2397 14.81871333395072
Epoch (UTC): 24 June 2016 08:55:17
Eccentricity: 0.0293528
inclination: 35.6234°
perigee height: 418 km
apogee height: 829 km
right ascension of ascending node: 170.4941°
argument of perigee: 75.0617°
revolutions per day: 14.81871333
mean anomaly at epoch: 288.2397°
orbit number at epoch: 39507

The dashed part of the orbit path shows where the satellite is in the earth's shadow,  

DLR